Location: Miles
(41.4492°N, 81.6087°W)
Time: 16:34:02
(UTC+00:00)

S-56A Canister/Altair - Pass Details

Date: 25 September 2024
Orbit: 636 x 2487 km, 38.9° (Epoch: 12 October)

Event Time Altitude Azimuth Distance (km) Brightness Sun altitude
Rises 23:50:38 0° 272° (W) 2,987 13.3 -7.0°
Reaches altitude 10° 23:52:46 10° 269° (W) 2,152 11.6 -7.4°
Maximum altitude 23:57:32 60° 189° (S) 935 8.0 -8.3°
Enters shadow 00:04:01 10° 111° (ESE) 2,894 9.8 -9.5°
